[[{"header":{"parameterUnit":"m.s-1","parameterCategory":1,"la1":30.2991,"la2":30.254,"lo1":-89.0895,"lo2":-89.0444,"dy":0.0017,"dx":0.0017,"nx":28,"ny":28,"refTime":"2024-06-30T09:00:00:Z","depth":0,"parameterNumber":2,"parameterNumberName":"U-component_of_WINDS"},"data":[0,0,0,0,0,0,0,0,0,0,0,0,0,0,0,0,0,0,0,0,0,0,0,0,0,0,0,0,0,0,0,0,0,0,0,0,0,0,0,0,0,0,0,0,0,0,0,0,0,0,0,0,0,0,0,0,0,0,1.4329,1.433,0,1.4431,1.4432,1.4433,1.4434,1.4433,1.4431,1.443,1.4536,1.454,1.4544,0,0,0,0,0,0,0,0,0,0,0,0,0,1.4136,1.414,1.4329,1.433,1.4331,1.4431,1.4432,1.4434,1.4434,1.4433,1.4431,1.443,1.4534,1.4539,1.4544,0,0,0,0,0,0,0,0,0,0,0,0,0,1.4227,1.4141,1.4329,1.4344,1.4346,1.443,1.4432,1.4434,1.4435,1.4433,1.4431,1.4429,1.4533,1.4539,1.4545,1.4621,0,0,1.4563,1.4566,0,0,0,0,0,0,0,0,1.4222,1.4234,1.434,1.4343,1.4346,1.4418,1.4403,1.4497,1.4435,1.4401,1.443,1.4428,1.4498,1.4507,1.453,1.4626,1.463,1.4564,1.4567,1.457,1.4571,0,0,0,0,0,0,0,1.4216,1.423,1.4369,1.4342,1.4345,1.4346,1.4357,1.4421,1.4459,1.4404,1.4404,1.4416,1.4499,1.4524,1.4533,1.4632,1.4563,1.4569,1.4572,1.4575,1.4796,1.4799,0,0,0,0,0,0,1.4206,1.4225,1.4366,1.4372,1.4278,1.4351,1.4363,1.4397,1.4459,1.4466,1.4418,1.4416,1.4515,1.4526,1.4536,1.463,1.457,1.4575,1.4579,1.4794,1.4797,1.4799,0,0,0,0,0,0,1.4202,1.4219,1.4362,1.4299,1.4317,1.4356,1.4394,1.44,1.4425,1.4469,1.4476,1.4436,1.4514,1.4528,1.46,1.4634,1.4578,1.4584,1.4792,1.4795,1.4798,1.4818,0,0,0,0,0,0,1.4197,1.4217,1.4246,1.4299,1.432,1.4423,1.4396,1.4403,1.4435,1.4434,1.4488,1.4496,1.4514,1.4591,1.4606,1.4641,1.4588,1.4789,1.4793,1.4797,1.4815,1.4822,1.4828,0,0,0,0,0,1.419,1.4248,1.4248,1.4265,1.4357,1.4425,1.4437,1.4456,1.4438,1.4468,1.4496,1.4494,1.4628,1.4598,1.4615,1.4653,1.4787,1.4792,1.4797,1.4812,1.4821,1.4828,0,0,0,0,0,0,1.4198,1.4255,1.4255,1.4333,1.4374,1.4425,1.4463,1.4465,1.4513,1.4509,1.4532,1.4544,1.4616,1.4642,1.4608,1.4731,1.4705,1.4714,1.4711,1.472,1.4726,1.4718,1.4593,0,0,0,0,0,1.4209,1.4259,1.4306,1.437,1.439,1.4423,1.4454,1.4465,1.4509,1.4526,1.456,1.4603,1.4655,1.4689,1.4739,1.4819,1.4831,1.4853,1.486,1.4865,1.4872,1.4917,1.4928,1.4816,1.4816,1.4816,0,0,1.4231,1.4269,1.4299,1.4372,1.4406,1.4458,1.4438,1.4493,1.4532,1.4535,1.4605,1.4632,1.4681,1.4758,1.4793,1.4781,1.4906,1.4872,1.4876,1.488,1.4923,1.4934,1.4943,1.482,1.4819,1.4819,0,0,1.4299,1.4333,1.4389,1.4423,1.4474,1.4496,1.451,1.4561,1.4579,1.4649,1.4653,1.47,1.4788,1.4824,1.4853,1.4936,1.4936,1.4952,1.4987,1.503,1.5039,1.5047,1.5076,1.5087,1.4959,1.4959,1.4959,0,1.4321,1.4399,1.4418,1.4474,1.4506,1.4511,1.4569,1.4602,1.4667,1.4689,1.4675,1.4787,1.4821,1.4906,1.4926,1.495,1.4967,1.4945,1.5036,1.5044,1.5052,1.508,1.5091,1.4961,1.4961,1.496,1.496,0,1.4423,1.4477,1.4517,1.4579,1.4616,1.4673,1.4702,1.4737,1.4746,1.4769,1.4841,1.4882,1.4941,1.4962,1.4971,1.5049,1.504,1.5031,1.5006,1.5064,1.5091,1.5102,1.4963,1.4963,1.4962,1.4962,0,0,1.4498,1.4571,1.4585,1.4614,1.4671,1.4714,1.4771,1.4828,1.4858,1.4903,1.4952,1.5028,1.502,1.5054,1.5067,1.5105,1.5168,1.5091,1.5093,1.5104,1.5257,1.5263,1.5275,1.5169,1.5171,1.5173,1.5253,0,1.4572,1.4673,1.4693,1.4781,1.4831,1.4838,1.4888,1.4929,1.4952,1.4999,1.5026,1.5079,1.5064,1.5085,1.5123,1.5152,1.5199,1.5147,1.5215,1.5217,1.5201,1.5289,1.5296,1.5369,1.5263,1.5265,1.5267,0,1.4671,1.4718,1.4811,1.4863,1.4885,1.4929,1.4984,1.5028,1.5075,1.509,1.5128,1.5137,1.5198,1.517,1.5254,1.5218,1.5248,1.5267,1.527,1.5276,1.5244,1.5298,1.5393,1.5404,1.5283,1.5282,1.5281,0,1.4716,1.4803,1.487,1.4895,1.4956,1.4987,1.5014,1.5059,1.5093,1.5141,1.5163,1.5218,1.5248,1.529,1.5314,1.5292,1.5397,1.5371,1.5411,1.541,1.5432,1.543,1.5533,1.5451,1.5451,1.5451,1.5451,0,1.4796,1.4853,1.4891,1.4933,1.4997,1.502,1.5083,1.5109,1.515,1.5197,1.5206,1.525,1.5279,1.5328,1.5347,1.5414,1.5427,1.5441,1.5446,1.544,1.5438,1.5459,1.5454,1.5454,1.5453,1.5453,1.5452,0,1.4857,1.4885,1.4958,1.5011,1.5025,1.507,1.5115,1.5156,1.518,1.524,1.5255,1.5293,1.5351,1.5379,1.5451,1.5464,1.5539,1.5541,1.5523,1.5525,1.5563,1.5559,1.5682,1.5699,1.5607,1.5608,1.5609,0,1.4905,1.4949,1.5006,1.5038,1.5066,1.5118,1.5152,1.5177,1.5212,1.527,1.5303,1.5362,1.5409,1.5501,1.5536,1.5591,1.5593,1.5633,1.5602,1.5595,1.5594,1.559,1.5595,1.5638,1.5639,1.564,1.564,0,1.4989,1.5001,1.505,1.5104,1.5145,1.5189,1.5232,1.5258,1.529,1.5329,1.5388,1.5425,1.5499,1.5556,1.5614,1.5643,1.5647,1.565,1.5662,1.5656,1.5644,1.5651,1.5538,1.5647,1.5646,1.5646,1.5645,1.5645,1.5046,1.5085,1.5131,1.5186,1.5221,1.5261,1.5302,1.5332,1.5381,1.5442,1.5454,1.5517,1.5564,1.5642,1.5673,1.5722,1.5714,1.5731,1.5735,1.5739,1.5741,1.5637,1.5733,1.5733,1.5733,1.5733,1.5733,0,1.5129,1.516,1.521,1.527,1.5313,1.5313,1.5361,1.5397,1.5452,1.5495,1.5542,1.561,1.5667,1.5706,1.5763,1.5796,1.5799,1.581,1.5807,1.5814,1.5746,1.5729,1.5806,1.5806,1.5806,1.5806,1.5806,1.5806,1.5178,1.5245,1.5262,1.5347,1.5377,1.5438,1.5466,1.5503,1.5538,1.5613,1.566,1.5685,1.5727,1.5788,1.584,1.585,1.5871,1.5882,1.5892,1.5827,1.5819,1.5811,1.5796,1.5886,1.5886,1.5956,1.5957,1.5957]},{"header":{"parameterUnit":"m.s-1","parameterCategory":1,"la1":30.2991,"la2":30.254,"lo1":-89.0895,"lo2":-89.0444,"dy":0.0017,"dx":0.0017,"nx":28,"ny":28,"refTime":"2024-06-30T09:00:00:Z","depth":0,"parameterNumber":3,"parameterNumberName":"V-component_of_WINDS"},"data":[0,0,0,0,0,0,0,0,0,0,0,0,0,0,0,0,0,0,0,0,0,0,0,0,0,0,0,0,0,0,0,0,0,0,0,0,0,0,0,0,0,0,0,0,0,0,0,0,0,0,0,0,0,0,0,0,0,0,-2.1522,-2.1523,0,-2.1605,-2.1606,-2.1607,-2.1606,-2.1605,-2.1604,-2.1603,-2.1687,-2.169,-2.1693,0,0,0,0,0,0,0,0,0,0,0,0,0,-2.1364,-2.1367,-2.1522,-2.1523,-2.1524,-2.1605,-2.1606,-2.1607,-2.1606,-2.1605,-2.1603,-2.1602,-2.1685,-2.1689,-2.1693,0,0,0,0,0,0,0,0,0,0,0,0,0,-2.1438,-2.1368,-2.1522,-2.1534,-2.1536,-2.1604,-2.1606,-2.1607,-2.1606,-2.1605,-2.1603,-2.1602,-2.1684,-2.1689,-2.1694,-2.1756,0,0,-2.1709,-2.1711,0,0,0,0,0,0,0,0,-2.1434,-2.1444,-2.1531,-2.1533,-2.1535,-2.1593,-2.1581,-2.1657,-2.1607,-2.1579,-2.1603,-2.1601,-2.1657,-2.1664,-2.1683,-2.176,-2.1764,-2.1709,-2.1712,-2.1714,-2.1715,0,0,0,0,0,0,0,-2.1429,-2.144,-2.1555,-2.1532,-2.1535,-2.1535,-2.1543,-2.1595,-2.1626,-2.1582,-2.1582,-2.1592,-2.1658,-2.1678,-2.1685,-2.1765,-2.1709,-2.1713,-2.1716,-2.1718,-2.1898,-2.19,0,0,0,0,0,0,-2.1421,-2.1436,-2.1552,-2.1557,-2.148,-2.1539,-2.1549,-2.1576,-2.1626,-2.1632,-2.1593,-2.1591,-2.1671,-2.1679,-2.1688,-2.1764,-2.1714,-2.1719,-2.1721,-2.1896,-2.1898,-2.19,0,0,0,0,0,0,-2.1418,-2.1432,-2.1549,-2.1497,-2.1512,-2.1543,-2.1574,-2.1579,-2.1599,-2.1634,-2.164,-2.1608,-2.167,-2.1681,-2.1739,-2.1767,-2.1721,-2.1725,-2.1894,-2.1897,-2.1899,-2.1917,0,0,0,0,0,0,-2.1413,-2.1431,-2.1455,-2.1497,-2.1515,-2.1599,-2.1576,-2.1582,-2.1608,-2.1606,-2.165,-2.1656,-2.1669,-2.1732,-2.1744,-2.1773,-2.1729,-2.1892,-2.1895,-2.1899,-2.1915,-2.1921,-2.1926,0,0,0,0,0,-2.1408,-2.1456,-2.1456,-2.147,-2.1545,-2.1601,-2.1611,-2.1626,-2.161,-2.1635,-2.1657,-2.1654,-2.1762,-2.1738,-2.1752,-2.1782,-2.189,-2.1894,-2.1898,-2.1912,-2.1919,-2.1926,0,0,0,0,0,0,-2.1416,-2.1462,-2.1462,-2.1526,-2.156,-2.1601,-2.1632,-2.1633,-2.1671,-2.1668,-2.1685,-2.1695,-2.1753,-2.1774,-2.1746,-2.1845,-2.1824,-2.1831,-2.183,-2.1837,-2.1843,-2.1836,-2.1733,0,0,0,0,0,-2.1425,-2.1466,-2.1505,-2.1557,-2.1574,-2.16,-2.1625,-2.1634,-2.1669,-2.1683,-2.171,-2.1744,-2.1786,-2.1813,-2.1853,-2.1918,-2.1927,-2.1945,-2.1951,-2.1955,-2.1961,-2.1997,-2.2005,-2.1914,-2.1914,-2.1914,0,0,-2.1445,-2.1475,-2.15,-2.156,-2.1587,-2.1629,-2.1612,-2.1658,-2.1689,-2.169,-2.1747,-2.1767,-2.1807,-2.1869,-2.1897,-2.1887,-2.1989,-2.1961,-2.1964,-2.1967,-2.2002,-2.2011,-2.2018,-2.1917,-2.1916,-2.1916,0,0,-2.1502,-2.1529,-2.1576,-2.1603,-2.1644,-2.1661,-2.1673,-2.1714,-2.1728,-2.1785,-2.1787,-2.1824,-2.1896,-2.1924,-2.1947,-2.2015,-2.2014,-2.2028,-2.2056,-2.2091,-2.2098,-2.2105,-2.2129,-2.2137,-2.2033,-2.2033,-2.2033,0,-2.1521,-2.1584,-2.16,-2.1645,-2.1671,-2.1675,-2.1722,-2.1748,-2.18,-2.1818,-2.1806,-2.1896,-2.1923,-2.1991,-2.2008,-2.2027,-2.204,-2.2022,-2.2096,-2.2103,-2.2109,-2.2132,-2.2141,-2.2035,-2.2035,-2.2034,-2.2034,0,-2.1605,-2.165,-2.1683,-2.1733,-2.1763,-2.1809,-2.1831,-2.186,-2.1866,-2.1884,-2.1943,-2.1975,-2.2022,-2.2039,-2.2045,-2.2108,-2.2101,-2.2092,-2.2071,-2.2119,-2.214,-2.2149,-2.2037,-2.2036,-2.2036,-2.2036,0,0,-2.1669,-2.1728,-2.174,-2.1762,-2.1808,-2.1843,-2.1889,-2.1935,-2.1959,-2.1995,-2.2034,-2.2095,-2.2087,-2.2114,-2.2124,-2.2154,-2.2206,-2.2142,-2.2144,-2.2153,-2.2277,-2.2282,-2.2292,-2.2205,-2.2207,-2.2209,-2.2273,0,-2.1731,-2.1813,-2.1829,-2.1901,-2.1942,-2.1945,-2.1986,-2.2018,-2.2036,-2.2074,-2.2094,-2.2137,-2.2124,-2.214,-2.217,-2.2193,-2.2231,-2.2189,-2.2242,-2.2243,-2.2231,-2.2304,-2.231,-2.2369,-2.2282,-2.2283,-2.2284,0,-2.1813,-2.1852,-2.1928,-2.1968,-2.1986,-2.2022,-2.2065,-2.2101,-2.2138,-2.2149,-2.2179,-2.2185,-2.2233,-2.221,-2.2277,-2.2248,-2.2271,-2.2285,-2.2288,-2.2293,-2.2266,-2.231,-2.2389,-2.2397,-2.2298,-2.2297,-2.2296,0,-2.1852,-2.1922,-2.1977,-2.1996,-2.2045,-2.207,-2.2091,-2.2127,-2.2153,-2.2191,-2.2209,-2.2252,-2.2275,-2.2308,-2.2326,-2.2308,-2.2391,-2.237,-2.2402,-2.2401,-2.2419,-2.2417,-2.2501,-2.2434,-2.2434,-2.2434,-2.2434,0,-2.1919,-2.1965,-2.1995,-2.2028,-2.208,-2.2098,-2.2148,-2.2169,-2.2201,-2.2238,-2.2244,-2.2279,-2.2301,-2.2339,-2.2353,-2.2406,-2.2417,-2.2427,-2.243,-2.2426,-2.2425,-2.2441,-2.2437,-2.2436,-2.2436,-2.2435,-2.2435,0,-2.197,-2.1992,-2.2052,-2.2093,-2.2104,-2.2141,-2.2176,-2.2208,-2.2227,-2.2274,-2.2287,-2.2316,-2.2361,-2.2382,-2.2438,-2.2447,-2.2507,-2.2508,-2.2495,-2.2496,-2.2527,-2.2523,-2.2624,-2.2638,-2.2561,-2.2562,-2.2563,0,-2.2011,-2.2047,-2.2092,-2.2117,-2.2139,-2.2181,-2.2208,-2.2226,-2.2255,-2.2299,-2.2327,-2.2372,-2.2409,-2.2482,-2.2508,-2.255,-2.2552,-2.2584,-2.2558,-2.2553,-2.2552,-2.2549,-2.2553,-2.2588,-2.2589,-2.259,-2.259,0,-2.2081,-2.209,-2.213,-2.2173,-2.2205,-2.224,-2.2274,-2.2295,-2.2319,-2.235,-2.2396,-2.2425,-2.2483,-2.2528,-2.2572,-2.2594,-2.2596,-2.2598,-2.2608,-2.2604,-2.2595,-2.26,-2.2507,-2.2596,-2.2595,-2.2595,-2.2594,-2.2594,-2.2129,-2.2161,-2.2197,-2.2241,-2.2268,-2.23,-2.2333,-2.2355,-2.2394,-2.2443,-2.2451,-2.25,-2.2536,-2.2597,-2.262,-2.2659,-2.2651,-2.2665,-2.2669,-2.2672,-2.2674,-2.2589,-2.2667,-2.2667,-2.2667,-2.2667,-2.2667,0,-2.2199,-2.2223,-2.2262,-2.231,-2.2344,-2.2344,-2.2381,-2.241,-2.2453,-2.2487,-2.2524,-2.2577,-2.2621,-2.265,-2.2695,-2.272,-2.2722,-2.2731,-2.2729,-2.2734,-2.2678,-2.2665,-2.2729,-2.2729,-2.2729,-2.2729,-2.2729,-2.2729,-2.2239,-2.2293,-2.2307,-2.2374,-2.2398,-2.2446,-2.2468,-2.2497,-2.2524,-2.2583,-2.262,-2.2639,-2.2671,-2.2718,-2.2758,-2.2765,-2.2781,-2.279,-2.2798,-2.2745,-2.2738,-2.2732,-2.272,-2.2794,-2.2794,-2.2851,-2.2851,-2.2852]}]]